Lapse_Rate
3.1 3.1 3.6 3.8 4.4 4.7 5.2 5.4 5.8 5.8 5.6 5.8 5.9 5.8 5.7 6.0 5.8 6.0 5.8 6.0 5.8 5.7 5.8 5.9 6.0 6.0 6.0 5.8 6.1 6.4 6.5 6.8 6.8 6.8 6.9 6.9 7.1 6.7 6.8 7.3 7.2 7.2 7.5 7.2 7.4 7.7 8.1
3.6 3.6 3.4 3.7 4.1 4.4 4.2 4.5 4.7 5.4 5.8 5.6 5.5 6.0 5.7 5.8 5.7 5.8 5.7 5.8 6.0 5.8 5.7 5.9 5.9 5.9 5.8 5.8 5.2 6.5 6.5 6.5 6.7 6.8 6.8 6.7 6.3 6.3 6.9 6.8 6.9 6.9 7.2 7.3 7.3 7.2 7.2
4.4 4.4 4.1 3.8 4.2 4.6 4.0 4.1 4.3 4.5 5.5 5.9 5.6 5.4 5.8 5.6 5.8 5.6 5.6 5.7 5.7 5.9 5.7 5.7 5.7 5.9 5.9 6.4 5.3 6.3 6.3 6.4 6.7 6.5 6.6 6.9 7.2 7.2 6.5 7.0 6.5 7.4 7.4 7.5 7.6 7.9 7.4
5.9 5.7 5.1 4.7 4.4 4.8 4.5 4.3 4.0 4.7 4.3 5.5 5.7 5.6 5.4 5.5 5.9 5.7 5.5 5.5 5.7 5.6 5.8 5.7 5.7 5.6 5.8 6.3 5.6 6.3 6.5 6.4 6.7 6.7 6.6 7.0 7.0 7.0 7.1 6.7 7.2 7.3 7.2 7.6 8.2 7.9 7.4
7.3 7.1 6.4 5.8 5.1 4.8 4.7 4.3 3.8 4.0 4.4 4.4 5.1 5.6 5.4 5.9 5.8 5.6 5.3 5.3 5.4 5.5 5.6 5.6 5.5 5.4 5.5 6.4 6.3 6.5 6.4 6.4 6.5 6.6 6.6 7.1 6.9 6.9 6.8 7.0 7.1 7.2 7.4 7.9 8.5 8.3 8.0
7.6 7.5 7.2 6.5 6.2 5.2 4.4 4.5 3.6 3.5 3.9 4.4 4.7 5.2 5.8 5.6 6.1 5.5 5.3 5.1 5.2 5.4 5.3 5.3 5.3 4.6 5.3 6.5 6.8 6.3 6.4 6.4 6.3 6.5 6.6 6.9 6.8 6.7 7.0 6.6 6.8 7.5 7.8 8.2 8.9 9.1 8.2
7.5 7.4 7.5 7.0 6.5 6.0 5.1 4.0 3.8 3.4 3.4 3.8 4.2 4.5 5.3 6.1 5.4 5.5 5.2 4.9 4.8 4.9 4.9 5.2 5.6 5.9 5.8 5.6 6.4 6.8 6.6 6.6 6.3 6.4 6.4 7.0 6.6 6.4 7.5 7.3 7.4 7.7 8.1 7.8 8.2 8.7 8.2
7.5 7.6 7.7 7.5 6.8 6.4 5.6 4.7 3.8 3.1 3.1 3.7 3.8 4.5 4.9 4.5 5.3 5.3 5.6 5.7 5.9 5.4 5.2 5.8 5.5 5.6 5.8 4.6 6.1 6.7 6.6 6.6 6.4 6.4 6.7 5.9 6.0 7.0 6.9 7.2 7.3 7.4 7.4 7.6 7.9 8.2 8.2
7.6 7.6 7.6 7.7 7.4 6.7 6.1 5.1 4.1 3.2 3.3 3.5 3.6 4.9 4.6 5.0 4.2 5.2 5.7 6.2 5.9 5.1 4.6 5.3 5.9 5.7 6.6 5.5 6.4 6.4 6.4 6.8 6.4 6.5 5.9 6.2 6.6 7.4 6.8 7.1 7.2 7.2 7.3 7.5 7.8 8.2 8.4
7.6 7.7 7.6 7.6 7.6 7.2 6.4 5.7 4.7 3.7 3.2 3.3 3.3 3.9 4.0 4.9 4.2 4.4 4.5 5.5 5.1 5.2 4.6 5.0 5.3 5.9 5.7 4.9 5.5 6.0 5.6 6.7 5.8 6.2 6.3 6.4 6.7 6.8 6.8 6.8 7.0 6.8 7.3 7.6 7.8 7.6 7.9
7.7 7.9 8.0 7.9 7.7 7.6 6.7 6.1 5.0 4.0 3.3 2.5 3.3 3.4 3.7 4.3 5.0 4.5 4.6 4.8 4.3 5.1 5.5 5.2 5.0 5.5 6.2 5.6 5.9 6.5 5.3 6.1 5.9 6.0 6.3 6.3 6.5 6.9 6.6 6.9 7.0 7.0 7.3 7.1 7.3 7.3 7.5
7.6 7.9 8.2 8.0 7.7 7.7 7.4 6.1 5.4 4.3 3.6 2.9 2.9 2.8 3.7 4.4 4.9 4.4 4.7 4.7 3.9 4.7 4.6 6.2 5.9 5.3 5.6 5.5 5.8 6.2 6.0 6.0 6.4 6.2 6.2 6.7 6.7 6.6 6.7 6.7 6.8 7.0 6.8 6.7 7.3 7.6 7.6
7.6 8.0 8.2 8.1 7.9 7.6 7.6 6.8 5.9 4.7 4.1 3.9 3.3 2.8 3.6 4.0 4.5 4.9 4.9 4.6 4.8 4.6 4.1 5.3 5.6 4.9 5.3 5.5 4.9 5.9 5.6 5.1 5.5 5.7 5.8 6.3 6.8 6.3 6.2 6.4 6.5 6.5 6.5 7.2 7.4 7.9 7.9
7.6 7.9 8.0 8.0 7.7 7.4 7.5 7.3 6.1 5.2 4.5 4.0 3.7 3.0 3.3 3.6 4.2 4.5 5.6 5.7 5.4 5.2 3.7 5.7 6.0 5.1 4.9 5.4 5.0 6.4 5.7 5.2 5.6 5.5 6.2 6.2 6.3 6.4 5.9 6.1 6.6 6.4 6.9 7.4 8.3 8.5 8.8
7.7 7.9 7.9 7.6 7.5 7.3 7.5 7.3 6.5 5.6 5.0 4.4 4.0 3.9 4.0 3.6 4.1 4.8 5.2 5.7 5.3 5.0 4.5 6.2 5.5 5.4 5.1 5.4 5.2 5.6 5.8 5.3 6.1 5.5 6.2 6.4 6.5 7.1 6.5 6.4 7.0 6.6 6.5 7.1 8.1 8.4 8.0
7.6 7.5 7.4 7.4 7.2 7.3 7.4 7.2 6.8 6.0 5.4 4.7 4.2 4.1 4.4 3.9 4.5 4.9 5.3 5.5 5.4 5.6 5.5 6.3 5.4 4.9 4.9 5.4 5.7 5.2 6.1 5.8 5.6 5.9 5.9 6.9 6.8 7.0 7.4 7.0 6.6 7.1 7.5 7.3 7.5 7.1 7.2
7.1 7.0 7.2 7.5 7.7 7.5 7.4 6.9 6.6 6.6 5.7 5.0 4.5 4.2 4.3 4.8 4.7 5.8 6.4 6.0 5.1 5.8 6.1 6.0 5.4 5.0 5.7 5.9 5.7 5.6 6.1 6.5 5.7 5.9 6.1 6.4 7.0 7.4 8.0 6.5 6.3 6.0 6.9 7.3 7.3 7.2 7.5
6.9 7.2 7.2 7.5 7.5 7.3 7.2 6.7 6.5 6.5 6.4 5.7 5.0 4.1 4.5 5.1 6.4 6.6 6.3 5.9 4.9 5.5 6.3 6.1 5.4 6.0 6.2 6.4 6.4 6.5 6.1 6.3 6.4 6.2 6.1 6.2 6.6 6.7 7.1 7.3 6.6 6.6 6.6 7.3 7.3 6.9 6.8
6.7 7.3 7.4 7.2 6.9 6.8 6.9 6.4 6.5 6.6 6.5 6.3 5.2 4.4 5.0 5.0 6.1 6.6 6.5 6.3 5.7 5.4 5.7 5.5 5.7 5.5 5.9 6.3 6.0 6.0 6.1 6.6 6.6 6.4 6.1 6.2 6.2 6.1 6.3 6.3 6.7 6.1 6.8 7.0 7.1 7.0 6.6
7.1 7.3 7.6 7.4 7.2 7.3 7.4 6.8 6.8 6.5 6.7 6.6 5.9 5.0 5.2 6.1 6.0 6.8 7.3 6.0 5.9 5.9 6.0 5.5 6.0 6.3 6.3 6.1 6.0 5.9 6.1 6.4 6.3 5.7 6.2 6.6 6.0 5.7 5.8 6.2 6.4 5.9 6.6 6.9 7.0 6.7 6.7
7.0 6.9 7.5 7.5 7.3 7.2 7.1 7.2 7.0 6.7 6.7 6.8 6.3 5.6 5.5 5.8 6.2 6.5 6.3 6.3 6.2 6.3 6.3 5.6 5.6 6.1 6.5 5.9 5.6 5.8 6.1 6.3 5.7 5.5 6.3 6.6 5.7 5.7 6.2 7.2 6.7 7.1 7.3 7.3 7.2 6.9 6.9
6.9 6.7 6.7 7.2 7.0 7.0 7.0 6.8 7.0 6.9 6.7 6.6 6.6 6.2 6.1 6.1 5.9 6.1 6.3 6.7 6.2 5.8 6.8 6.3 5.4 5.8 6.0 5.9 6.2 5.5 6.1 6.0 6.0 5.9 5.8 6.1 5.6 6.2 6.4 6.7 7.1 7.3 7.3 7.3 7.4 7.4 7.2
7.0 7.2 7.1 6.9 7.0 7.3 7.1 6.9 6.8 6.7 6.6 6.7 6.8 6.6 6.8 6.5 6.5 6.3 6.7 5.8 5.8 6.3 6.4 6.5 5.9 6.6 6.3 6.4 6.6 6.4 6.2 5.5 6.3 6.2 6.0 5.9 5.8 6.1 5.8 7.0 6.9 6.3 6.4 8.0 7.7 7.6 7.6
7.1 7.2 7.1 7.2 7.1 7.3 7.4 7.3 7.2 7.0 7.0 7.0 7.1 7.0 7.3 6.6 6.5 6.0 6.0 6.2 6.1 6.2 6.6 6.6 6.5 6.8 7.1 6.9 6.2 6.0 5.9 6.0 6.4 6.1 5.9 6.2 5.9 5.4 5.3 5.4 5.5 5.9 6.6 7.3 7.9 7.8 8.1
6.7 7.0 6.5 6.9 7.2 7.5 7.2 7.3 7.3 7.3 7.2 7.0 7.4 7.2 7.1 7.6 6.6 6.9 6.0 6.0 6.3 6.5 6.7 7.0 7.2 7.6 6.8 6.5 6.4 5.5 5.5 5.7 5.8 6.0 6.1 6.1 5.6 4.9 5.0 5.1 5.9 6.4 7.1 7.5 7.8 7.8 8.0
6.8 7.0 6.9 6.8 6.8 7.0 7.0 7.1 7.1 7.1 7.2 7.2 7.4 7.6 7.2 7.6 7.6 6.9 6.5 6.7 6.2 6.4 6.6 6.8 6.9 7.1 6.8 6.5 6.3 5.9 5.6 5.6 5.2 5.6 5.9 5.3 5.6 5.2 5.1 5.5 5.8 6.3 7.4 7.4 7.8 7.1 7.5
6.6 6.9 7.1 7.1 7.1 7.1 7.0 7.1 7.1 7.0 7.1 7.1 7.3 7.6 7.3 7.5 7.6 6.6 6.3 6.1 6.8 6.6 6.7 7.0 6.5 6.8 7.1 6.8 6.6 6.0 5.9 5.7 5.7 5.5 5.4 5.6 5.5 5.5 5.4 5.6 6.3 6.6 7.1 7.4 7.5 6.6 7.3
6.2 6.4 6.8 6.9 6.9 7.0 7.0 7.2 7.1 7.2 7.2 7.2 7.2 7.3 7.5 7.4 7.5 7.0 6.0 5.8 6.3 6.3 6.1 6.5 6.6 6.8 6.6 6.6 6.6 6.3 6.3 6.0 5.8 5.6 5.5 5.5 5.6 5.6 5.6 5.7 5.7 6.8 6.9 6.9 7.2 7.2 7.6
6.5 6.2 6.5 6.5 6.7 7.1 7.2 7.4 7.4 7.4 7.3 7.2 7.3 7.3 7.3 7.0 7.3 7.0 6.4 6.0 5.6 6.3 6.1 6.1 6.4 6.3 6.4 5.7 6.0 6.4 6.9 6.6 6.7 5.8 5.7 6.0 5.9 6.4 6.6 6.5 7.2 6.6 7.0 7.4 7.3 7.1 7.1
Wind_Speed
25 26 26 24 22 23 24 27 23 21 21 30 29 28 27 25 23 21 22 20 17 13 10 8 10 12 8 9 15 8 6 6 8 10 9 7 8 10 12 8 7 11 12 4 5 4 6
25 26 27 27 25 24 25 24 27 23 18 22 29 28 28 26 25 22 22 21 18 13 9 8 8 12 6 14 3 9 8 5 9 7 8 8 6 8 9 7 8 6 7 8 9 10 11
25 26 28 29 27 26 24 23 25 28 21 17 22 29 28 27 25 23 21 21 18 14 9 7 8 7 13 17 1 6 4 9 3 8 7 2 6 8 5 7 5 7 10 12 15 14 11
24 24 26 29 29 27 26 23 24 24 25 20 17 25 29 27 25 24 22 21 17 13 9 7 7 9 9 13 25 22 9 7 5 2 4 2 6 9 8 8 4 6 10 9 14 20 8
26 25 25 26 29 28 27 24 25 23 21 24 18 14 26 27 26 25 23 20 16 11 7 7 5 8 14 1 15 15 15 13 10 7 3 3 5 7 6 8 7 11 9 15 16 15 11
28 28 26 25 27 30 30 28 29 25 23 24 21 14 14 28 27 25 24 20 12 8 6 8 10 8 16 15 12 17 18 15 12 9 6 5 5 7 8 10 10 11 17 17 14 13 8
29 30 30 28 28 29 32 31 29 28 24 23 24 17 12 20 29 29 19 9 7 7 19 13 12 13 8 19 3 14 15 18 15 14 13 15 8 14 19 17 17 17 16 14 14 12 11
28 30 32 31 29 29 33 34 30 30 30 28 26 18 14 12 27 37 23 19 27 5 11 26 25 23 23 6 10 14 17 16 18 20 18 13 19 19 17 18 19 18 16 15 16 15 15
29 29 30 32 31 30 31 35 31 30 32 28 26 21 16 12 24 22 26 32 17 17 6 19 32 24 15 15 14 19 22 23 20 20 20 22 10 22 19 16 14 13 14 14 17 15 9
30 29 30 31 31 29 30 35 31 29 28 29 25 21 20 17 10 15 23 22 23 17 6 14 16 16 27 17 14 24 23 22 16 23 22 21 22 20 20 20 16 16 16 18 17 11 13
30 30 33 33 32 30 27 32 31 29 28 30 27 24 24 20 6 13 15 20 3 2 8 13 28 12 19 26 8 25 24 21 21 16 22 17 21 22 17 19 16 15 7 10 9 11 14
30 32 33 31 30 29 27 29 31 29 28 26 29 30 23 12 9 7 15 10 5 5 10 9 21 25 28 31 20 18 26 21 18 20 19 22 15 16 20 15 13 9 8 7 10 10 12
31 32 30 31 31 30 27 27 30 29 27 27 27 29 20 10 11 10 15 10 9 6 2 9 31 28 32 28 29 14 27 26 19 18 20 19 22 14 9 16 13 12 8 4 4 7 9
30 30 32 34 31 30 30 28 29 28 25 24 22 23 20 13 12 15 4 11 15 10 22 10 20 21 30 29 31 29 26 24 27 24 14 18 17 25 16 21 14 17 14 6 8 10 14
31 31 32 28 26 28 31 29 31 27 25 24 18 11 12 12 17 16 17 14 13 16 27 9 17 21 24 28 17 26 28 28 26 28 20 19 21 18 22 20 21 18 21 18 14 15 7
30 31 31 26 26 25 30 30 32 29 26 23 10 8 12 7 11 14 16 13 19 20 23 23 19 20 23 30 25 26 28 29 29 30 20 11 13 21 26 24 24 23 13 13 9 9 12
29 29 32 28 24 27 29 31 32 29 26 25 9 5 4 11 3 13 14 13 14 26 13 31 20 19 22 23 30 29 24 17 32 30 26 14 8 13 18 24 20 15 18 14 11 12 7
28 27 29 20 19 26 27 32 33 31 27 21 8 6 7 11 8 5 8 9 15 22 22 9 14 22 20 25 25 26 33 30 24 24 34 28 10 14 21 17 23 22 24 22 9 15 16
27 25 26 21 18 25 28 33 32 31 32 14 7 7 7 8 10 6 2 12 20 23 21 18 19 14 16 20 13 26 23 25 15 28 26 24 10 10 8 17 20 24 18 20 17 10 18
28 24 25 20 13 22 31 32 32 32 32 12 5 6 4 7 2 5 7 14 15 26 22 19 21 15 17 14 18 17 22 16 8 18 24 25 12 21 16 19 15 22 22 22 20 15 13
25 23 25 17 16 22 26 30 31 31 30 11 5 4 6 6 5 4 10 17 22 16 20 23 18 16 13 9 10 6 16 19 15 15 15 21 19 18 17 11 24 22 24 25 25 21 19
23 24 26 14 16 21 27 28 30 30 27 10 4 4 6 4 8 17 8 16 24 25 21 28 16 25 22 16 15 16 19 14 16 16 11 7 16 13 16 19 14 25 25 26 23 23 23
24 27 27 18 21 27 28 29 30 29 23 7 6 8 1 8 9 6 12 12 23 27 22 26 28 22 23 24 21 22 18 4 3 17 18 17 6 14 11 17 4 10 21 19 20 20 19
26 29 31 19 27 29 29 29 29 30 28 7 9 4 4 5 9 4 6 19 19 25 26 24 26 22 20 13 12 8 8 9 5 0 4 10 7 3 4 6 7 7 9 12 15 16 16
26 27 30 10 24 28 28 29 30 29 30 9 6 5 4 8 10 13 9 12 16 15 24 22 26 26 13 8 5 3 4 3 1 5 7 2 7 3 4 5 7 11 8 11 14 20 17
26 26 24 10 20 27 27 28 29 27 29 12 4 7 3 8 11 18 9 10 10 9 14 26 18 10 13 3 3 6 5 5 6 7 10 9 4 4 3 4 8 5 14 14 7 16 7
26 26 26 13 20 22 23 26 26 26 26 13 5 8 5 3 9 9 5 3 3 4 5 16 22 8 14 5 5 5 3 7 8 12 10 9 7 10 6 5 6 9 6 9 14 3 2
24 25 27 7 13 24 22 22 26 25 24 15 9 7 4 3 2 4 4 6 2 5 5 3 3 5 8 11 13 6 5 6 5 11 12 10 8 7 5 5 11 7 10 14 4 6 5
24 24 26 28 14 15 17 18 19 21 22 19 6 7 5 2 1 2 4 5 6 4 4 5 1 4 4 3 2 4 3 6 11 5 13 8 10 8 11 8 4 1 7 6 6 3 4
Wind_Direction
279 277 274 271 267 274 276 292 302 278 258 224 218 215 213 215 217 213 219 216 217 222 234 263 295 317 322 241 256 139 179 197 255 259 271 277 269 252 253 250 246 239 267 233 283 242 256
287 276 271 268 264 259 265 268 289 297 270 254 220 214 209 210 211 209 212 215 211 214 227 254 286 314 242 260 269 151 222 234 256 247 243 239 277 353 301 301 265 1 312 292 272 244 239
296 284 273 263 258 258 251 252 264 279 293 272 245 214 210 205 205 201 206 208 210 205 215 243 277 281 262 241 139 143 233 242 262 264 232 18 334 283 338 249 277 278 275 268 243 234 228
299 293 286 265 255 249 251 239 255 264 281 287 274 232 207 202 199 193 196 201 200 202 204 237 276 268 254 260 244 258 233 222 208 203 333 15 310 283 265 307 256 245 236 261 257 201 157
297 291 294 280 259 248 244 238 230 246 260 279 274 287 218 196 190 187 183 189 186 184 204 224 247 226 257 159 223 237 214 224 196 215 239 316 275 252 204 233 258 220 251 231 237 173 159
296 290 291 297 267 252 241 237 232 225 237 259 266 270 284 196 187 176 162 162 158 149 224 216 251 238 249 238 221 223 219 222 225 208 235 223 225 227 218 223 218 233 219 240 248 176 193
295 291 290 288 289 261 247 235 234 219 222 239 261 245 249 230 179 159 138 130 168 212 205 201 186 216 298 205 303 197 201 200 211 202 211 197 212 210 219 216 239 264 289 292 298 309 292
290 290 287 288 283 275 251 235 227 228 213 218 238 239 239 253 186 165 170 194 192 138 202 227 253 214 245 188 212 221 193 187 196 209 214 217 226 226 228 235 235 244 259 261 276 282 274
286 284 282 282 279 278 263 234 223 224 222 211 219 226 226 235 213 172 190 201 195 238 252 198 217 227 221 217 229 207 187 201 199 208 209 222 216 219 237 229 238 245 245 258 272 289 268
285 282 282 279 276 277 274 232 218 218 221 211 213 213 211 208 168 199 199 195 230 220 255 225 204 231 214 203 243 233 188 193 211 216 213 228 234 245 209 229 209 236 237 245 257 272 262
285 288 281 277 271 269 270 232 215 214 218 216 204 212 209 185 139 203 185 199 8 122 227 210 194 169 192 198 150 201 183 210 213 210 204 213 212 227 228 218 215 235 295 304 278 262 277
285 285 279 274 266 258 255 238 216 209 211 215 208 204 206 209 193 239 163 138 68 203 205 225 166 186 186 197 220 173 190 211 223 228 228 231 202 219 228 233 223 245 242 262 262 263 250
289 290 278 275 263 251 242 235 216 206 204 207 210 205 196 196 209 171 158 156 188 217 168 221 169 175 193 191 200 201 191 193 203 206 221 223 223 197 219 218 221 212 184 218 226 221 252
294 293 289 278 259 241 231 226 211 201 202 204 204 207 208 219 211 183 198 170 206 184 192 247 164 184 195 190 200 213 190 196 214 204 196 205 215 215 194 210 196 205 195 193 227 236 259
299 298 298 276 255 243 218 216 203 193 194 195 191 204 208 212 189 181 190 203 187 194 200 222 159 182 196 201 187 203 209 203 204 201 213 198 223 180 206 205 217 192 216 228 272 284 281
307 304 303 283 252 223 207 206 193 186 186 183 191 200 217 195 220 187 204 206 198 204 187 208 191 199 192 199 195 194 207 202 207 210 213 224 220 225 195 197 217 234 201 213 235 235 244
315 314 317 295 240 204 202 198 184 180 181 176 180 197 195 189 226 197 203 201 205 206 184 196 192 199 208 195 203 194 207 205 198 197 212 225 233 210 198 201 193 208 233 224 211 228 230
321 324 326 295 203 196 196 190 177 174 170 163 183 201 177 160 215 232 197 176 213 206 218 215 198 225 208 208 207 212 214 204 193 203 200 205 227 229 220 221 208 210 216 220 210 211 231
326 325 325 306 218 204 193 180 172 168 166 165 185 190 148 141 214 228 205 204 208 205 197 192 196 232 255 217 208 216 221 210 209 197 213 181 218 222 236 228 218 222 214 213 225 230 234
332 327 327 317 194 179 172 167 167 168 171 170 172 172 227 179 179 192 184 188 194 209 204 195 198 220 223 241 215 213 221 221 224 229 210 180 178 211 210 214 179 211 222 209 213 220 231
336 327 325 309 172 167 165 167 167 170 176 174 178 188 194 193 179 201 202 171 199 185 209 192 201 205 220 218 223 245 223 216 201 232 185 186 202 201 221 199 193 199 210 209 213 217 222
334 331 326 255 220 182 174 170 169 171 176 195 138 162 194 268 187 206 212 199 198 197 183 200 196 199 217 227 213 202 238 206 201 204 189 182 209 220 235 229 204 212 214 219 218 220 228
328 335 324 248 205 185 177 172 174 174 170 193 177 199 76 221 207 228 214 229 199 200 206 199 207 199 213 226 225 240 191 169 287 191 188 182 148 201 224 220 98 240 246 205 213 230 240
338 343 335 224 192 183 176 174 175 178 189 189 197 173 196 237 200 187 219 206 227 217 212 201 199 214 201 142 62 22 85 117 146 130 108 177 112 352 141 89 210 228 224 250 248 254 236
344 347 356 179 187 179 175 175 180 183 190 208 166 191 194 232 236 230 285 237 219 243 233 209 208 207 144 128 98 10 339 71 206 179 156 166 119 172 142 166 324 286 244 225 228 244 249
352 355 355 335 196 180 180 179 182 185 188 202 166 193 194 229 230 247 233 282 219 220 228 228 207 163 161 126 107 156 205 146 171 170 216 212 204 138 136 173 194 229 226 260 297 249 242
356 356 356 341 182 181 192 183 184 185 187 197 187 197 216 214 231 232 216 293 162 183 291 205 207 192 188 167 168 182 194 159 160 171 173 188 202 196 176 215 249 236 264 215 222 256 104
3 7 6 5 171 182 180 191 189 183 183 188 198 176 118 219 247 274 209 224 328 263 189 190 141 183 192 194 195 173 167 181 171 186 175 166 162 187 173 171 255 186 183 198 158 89 92
7 11 11 8 189 171 181 188 184 186 183 182 203 202 196 183 32 319 239 190 190 179 313 180 168 155 171 152 221 116 185 157 167 194 187 189 198 158 191 206 270 304 190 150 107 113 125